Imperial, NE

2:23 AM MST on December 09, 2016 (GMT -0700)
Imperial Municipal

Weather History for KIML - April, 2012

Change the Weather History Date:

Thursday, April 12, 2012

  Actual Average Record
Temperature  
Mean Temperature 57 °F 47 °F  
Max Temperature 68 °F 61 °F 88 °F (1899)
Min Temperature 45 °F 33 °F 8 °F (1997)
Degree Days  
Heating Degree Days 8 18  
Month to date heating degree days 157 233  
Cooling Degree Days 0 0  
Month to date cooling degree days 0 0  
Year to date cooling degree days 1 0  
Growing Degree Days 6 (Base 50)    
Moisture  
Dew Point 50 °F    
Average Humidity 82    
Maximum Humidity 100    
Minimum Humidity 63    
Precipitation  
Precipitation 0.25 in 0.07 in 1.05 in (2001)
Sea Level Pressure  
Sea Level Pressure 29.71 in    
Wind  
Wind Speed 17 mph (ESE)    
Max Wind Speed 32 mph    
Max Gust Speed 41 mph    
Visibility 4 miles    
Events Fog , Rain , Thunderstorm    
T = Trace of Precipitation, MM = Missing Value Source: NWS Daily Summary

Daily Weather History Graph

Daily Weather History Graph

Search for Another Location

Airport or City:

Trip Planner

Search our weather history database for the weather conditions in past years. The results will help you decide how hot, cold, wet, or windy it might be!

Date:

Astronomy

Apr. 12, 2012 Rise Set
Actual Time 6:11 AM MDT 7:23 PM MDT
Civil Twilight 5:43 AM MDT 7:51 PM MDT
Nautical Twilight 5:10 AM MDT 8:24 PM MDT
Astronomical Twilight 4:34 AM MDT 9:00 PM MDT
Moon 1:12 AM MDT (4/12) 11:08 AM MDT (4/12)
Length of Visible Light 14h 07m
Length of Day
13h 11m
Waning Gibbous, 58% of the Moon is Illuminated
Apr 12
Waning Gibbous
Apr 13
Last Quarter
Apr 21
New
Apr 29
First Quarter
May 5
Full

Hourly Weather History & Observations

Time (MDT) Temp. Windchill Dew Point Humidity Pressure Visibility Wind Dir Wind Speed Gust Speed Precip Events Conditions
12:53 AM 46.4 °F 38.5 °F 39.2 °F 76% 29.92 in 10.0 mi SE 21.9 mph 29.9 mph N/A   Overcast
1:14 AM 46.4 °F 38.5 °F 41.0 °F 81% 29.94 in 10.0 mi SSE 21.9 mph 27.6 mph N/A   Overcast
1:53 AM 46.9 °F - 42.1 °F 83% 29.93 in 10.0 mi SSE 20.7 mph 27.6 mph N/A   Overcast
2:53 AM 46.9 °F - 43.0 °F 86% 29.90 in 10.0 mi SSE 19.6 mph - 0.00 in Thunderstorm Overcast
3:12 AM 46.4 °F 39.2 °F 42.8 °F 87% 29.91 in 10.0 mi SSE 18.4 mph - 0.00 in   Overcast
3:31 AM 46.4 °F 41.1 °F 42.8 °F 87% 29.93 in 9.0 mi SSE 11.5 mph - 0.00 in   Overcast
3:39 AM 46.4 °F 41.5 °F 44.6 °F 93% 29.94 in 9.0 mi South 10.4 mph - 0.00 in Thunderstorm Overcast
3:53 AM 46.9 °F - 44.1 °F 90% 29.92 in 5.0 mi SSE 16.1 mph - 0.00 in Rain Light Rain
4:00 AM 46.4 °F 40.4 °F 44.6 °F 93% 29.91 in 1.8 mi SE 13.8 mph - 0.01 in Rain Light Rain
4:04 AM 46.4 °F 40.1 °F 44.6 °F 93% 29.91 in 2.0 mi SE 15.0 mph - 0.01 in Rain , Thunderstorm Light Rain
4:35 AM 46.4 °F 39.2 °F 44.6 °F 93% 29.86 in 4.0 mi SE 18.4 mph 31.1 mph 0.08 in Rain , Thunderstorm Light Thunderstorms and Rain
4:48 AM 46.4 °F 38.5 °F 44.6 °F 93% 29.86 in 4.0 mi SSE 21.9 mph 29.9 mph 0.08 in   Overcast
4:53 AM 46.4 °F 38.5 °F 44.6 °F 93% 29.85 in 4.0 mi SE 21.9 mph - N/A   Overcast
5:30 AM 46.4 °F 39.8 °F 44.6 °F 93% 29.85 in 2.5 mi SE 16.1 mph - N/A   Overcast
5:44 AM 46.4 °F 39.8 °F 44.6 °F 93% 29.86 in 1.8 mi SE 16.1 mph - N/A   Overcast
5:53 AM 46.0 °F 39.3 °F 45.0 °F 96% 29.86 in 1.8 mi SE 16.1 mph - N/A   Overcast
6:02 AM 44.6 °F 37.2 °F 44.6 °F 100% 29.86 in 2.0 mi ESE 17.3 mph - N/A   Overcast
6:53 AM 45.0 °F 38.2 °F 44.1 °F 97% 29.87 in 2.0 mi ESE 15.0 mph 24.2 mph 0.01 in   Overcast
7:06 AM 44.6 °F 37.4 °F 44.6 °F 100% 29.86 in 1.2 mi ESE 16.1 mph 25.3 mph N/A   Overcast
7:53 AM 45.0 °F 37.4 °F 44.1 °F 97% 29.85 in 1.2 mi ESE 18.4 mph 24.2 mph N/A   Overcast
8:17 AM 44.6 °F 36.9 °F 44.6 °F 100% 29.83 in 2.5 mi SE 18.4 mph 25.3 mph N/A   Overcast
8:26 AM 46.4 °F 38.7 °F 44.6 °F 93% 29.82 in 4.0 mi SE 20.7 mph 28.8 mph N/A   Overcast
8:53 AM 46.0 °F 38.5 °F 45.0 °F 96% 29.82 in 4.0 mi ESE 19.6 mph 26.5 mph N/A   Overcast
9:30 AM 46.4 °F 39.2 °F 44.6 °F 93% 29.80 in 1.8 mi ESE 18.4 mph 26.5 mph N/A   Overcast
9:53 AM 46.0 °F 38.8 °F 46.0 °F 100% 29.81 in 0.5 mi ESE 18.4 mph 24.2 mph N/A Fog Fog
10:07 AM 46.4 °F 39.2 °F 46.4 °F 100% 29.79 in 0.2 mi ESE 18.4 mph - N/A Fog Fog
10:53 AM 46.9 °F - 46.9 °F 100% 29.79 in 0.2 mi SE 19.6 mph - N/A Fog Fog
11:53 AM 48.9 °F - 48.0 °F 97% 29.75 in 0.2 mi ESE 15.0 mph - N/A Fog Fog
12:53 PM 54.0 °F - 54.0 °F 100% 29.69 in 0.2 mi SE 18.4 mph - N/A Fog Fog
1:45 PM 55.4 °F - 55.4 °F 100% 29.67 in 0.2 mi SE 23.0 mph 31.1 mph N/A Fog Fog
1:53 PM 55.9 °F - 55.9 °F 100% 29.65 in 0.5 mi SE 21.9 mph 31.1 mph N/A Fog Fog
2:23 PM 57.2 °F - 57.2 °F 100% 29.63 in 1.8 mi ESE 27.6 mph 36.8 mph N/A   Overcast
2:33 PM 55.4 °F - 55.4 °F 100% 29.62 in 0.2 mi ESE 21.9 mph 33.4 mph N/A Fog Fog
2:42 PM 55.4 °F - 55.4 °F 100% 29.62 in 0.5 mi ESE 23.0 mph 35.7 mph N/A Fog Fog
2:53 PM 57.0 °F - 57.0 °F 100% 29.60 in 1.0 mi ESE 24.2 mph 35.7 mph N/A   Overcast
2:55 PM 57.2 °F - 55.4 °F 94% 29.61 in 0.5 mi ESE 25.3 mph 35.7 mph 0.00 in Fog , Rain Light Rain
2:58 PM 55.4 °F - 55.4 °F 100% 29.61 in 0.2 mi ESE 23.0 mph 32.2 mph N/A Fog , Rain Light Rain
3:10 PM 55.4 °F - 55.4 °F 100% 29.60 in 0.2 mi ESE 27.6 mph 35.7 mph 0.04 in Fog , Rain , Thunderstorm Light Thunderstorms and Rain
3:28 PM 55.4 °F - 55.4 °F 100% 29.60 in 0.2 mi ESE 21.9 mph 29.9 mph 0.15 in Fog , Rain Light Rain
3:35 PM 55.4 °F - 55.4 °F 100% 29.59 in 0.2 mi ESE 23.0 mph 32.2 mph 0.15 in Fog , Rain , Thunderstorm Light Rain
3:43 PM 57.2 °F - 57.2 °F 100% 29.58 in 0.2 mi ESE 24.2 mph 29.9 mph 0.16 in Fog , Rain , Thunderstorm Light Rain
3:53 PM 57.0 °F - 57.0 °F 100% 29.57 in 1.2 mi ESE 19.6 mph 28.8 mph 0.16 in Thunderstorm Overcast
4:13 PM 60.8 °F - 59.0 °F 94% 29.56 in 2.5 mi ESE 23.0 mph 26.5 mph N/A Thunderstorm Overcast
4:24 PM 60.8 °F - 59.0 °F 94% 29.56 in 3.0 mi ESE 19.6 mph 29.9 mph N/A Thunderstorm Overcast
4:33 PM 60.8 °F - 57.2 °F 88% 29.56 in 3.0 mi East 19.6 mph 27.6 mph N/A   Overcast
4:40 PM 59.0 °F - 57.2 °F 94% 29.56 in 2.5 mi East 17.3 mph 27.6 mph N/A   Overcast
4:53 PM 61.0 °F - 59.0 °F 93% 29.52 in 3.0 mi East 19.6 mph 28.8 mph N/A   Overcast
5:29 PM 68.0 °F - 55.4 °F 64% 29.49 in 7.0 mi South 28.8 mph 40.3 mph N/A   Scattered Clouds
5:36 PM 66.2 °F - 55.4 °F 68% 29.49 in 10.0 mi South 24.2 mph 40.3 mph N/A   Partly Cloudy
5:53 PM 68.0 °F - 55.9 °F 65% 29.47 in 10.0 mi South 27.6 mph 41.4 mph N/A   Clear
6:30 PM 60.8 °F - 53.6 °F 77% 29.56 in 10.0 mi NW 16.1 mph 27.6 mph N/A Thunderstorm Thunderstorm
6:39 PM 60.8 °F - 53.6 °F 77% 29.56 in 10.0 mi North 18.4 mph - N/A Thunderstorm Thunderstorm
6:53 PM 57.0 °F - 53.1 °F 87% 29.57 in 10.0 mi North 21.9 mph 28.8 mph N/A Thunderstorm Thunderstorm
7:08 PM 55.4 °F - 51.8 °F 88% 29.60 in 10.0 mi North 25.3 mph 29.9 mph N/A Thunderstorm Mostly Cloudy
7:27 PM 51.8 °F - 50.0 °F 94% 29.60 in 10.0 mi North 17.3 mph 25.3 mph N/A Thunderstorm Scattered Clouds
7:33 PM 51.8 °F - 50.0 °F 94% 29.60 in 10.0 mi North 19.6 mph - N/A   Scattered Clouds
7:53 PM 51.1 °F - 48.9 °F 92% 29.60 in 10.0 mi North 15.0 mph - N/A   Clear
8:53 PM 50.0 °F - 48.9 °F 96% 29.65 in 10.0 mi NNE 9.2 mph - N/A   Mostly Cloudy
9:28 PM 50.0 °F - 48.2 °F 94% 29.65 in 10.0 mi North 6.9 mph - N/A   Overcast
9:53 PM 50.0 °F - 48.0 °F 93% 29.66 in 10.0 mi ENE 4.6 mph - N/A   Overcast
10:25 PM 48.2 °F - 48.2 °F 100% 29.64 in 9.0 mi Calm Calm - N/A   Overcast
10:34 PM 48.2 °F - 46.4 °F 93% 29.64 in 9.0 mi SSE 3.5 mph - N/A   Overcast
10:53 PM 48.9 °F - 48.0 °F 97% 29.63 in 2.0 mi North 8.1 mph - N/A   Overcast
11:09 PM 48.2 °F - 48.2 °F 100% 29.64 in 3.0 mi SE 4.6 mph - N/A   Overcast
11:16 PM 48.2 °F - 48.2 °F 100% 29.63 in 1.8 mi NNE 10.4 mph - N/A   Overcast
11:27 PM 48.2 °F - 48.2 °F 100% 29.65 in 3.0 mi WSW 8.1 mph - N/A   Overcast
11:53 PM 48.0 °F - 46.9 °F 96% 29.63 in 7.0 mi NW 8.1 mph - N/A   Overcast